Regional Weather Roundup
Issued by NWS Charleston, SC

Home | Current Version | Previous Version | Text Only | Print | Product List | Glossary On
Versions: 1 2 3 4 5 6 7 8 9 10 11 12 13 14 15 16 17 18 19 20 21 22 23 24 25 26 27 28 29 30 31 32 33 34 35 36 37 38 39 40 41 42 43 44 45 46 47 48 49 50
000
ASUS42 KCHS 141928
RWRCHS

REGIONAL WEATHER ROUNDUP
NATIONAL WEATHER SERVICE CHARLESTON SC
200 PM EST SUN FEB 14 2016

NOTE: "FAIR" INDICATES FEW OR NO CLOUDS BELOW 12,000 FEET WITH NO
SIGNIFICANT WEATHER AND/OR OBSTRUCTIONS TO VISIBILITY.

NOT ALL STATIONS ARE QUALITY CONTROLLED BY THE NATIONAL
WEATHER SERVICE. USE DATA WITH CAUTION...ESPECIALLY
DEWPOINT OBSERVATIONS.

SCZ027-030-031-034>040-042>050-142000-
...SOUTHEAST SOUTH CAROLINA...

CITY           SKY/WX    TMP DP  RH WIND       PRES   REMARKS
N CHARLESTON   PTSUNNY   43  14  31 SE10G17   30.42F
WATERFRONT PRK   N/A     38  24  57 NE15      30.28F WCI  29
MOUNT PLEASANT FAIR      39  25  56 E7        30.43F WCI  34
JOHNS ISLAND   FAIR      39  25  56 NE16G23   30.42F WCI  30
PINOPOLIS        N/A     37  10  32 NE7       30.34F WCI  32
MONCKS CORNER  FAIR      39   3  22 E7        30.42F WCI  34
SUMMERVILLE    FAIR      43  14  31 E6        30.42F
BEAUFORT MCAS  MOSUNNY   42  22  44 E8        30.41F
BEAUFORT ARPT  CLOUDY    43  25  49 E14       30.40S
HILTON HEAD IS NOT AVBL
WALTERBORO     CLEAR     45  12  26 E7        30.40F
ALLENDALE      FAIR      43  14  31 VRB3      30.37F

...SOUTHERN MIDLANDS AND PEE DEE...

CITY           SKY/WX    TMP DP  RH WIND       PRES   REMARKS
GEORGETOWN     FAIR      36  19  51 NE8G16    30.47S WCI  29
KINGSTREE      FAIR      36   3  25 NE3       30.44F
ORANGEBURG     SUNNY     40   7  25 E8G17     30.41F WCI  34
BARNWELL       FAIR      43  14  31 E9        30.39F
AIKEN          FAIR      37   9  30 E9        30.39F WCI  31
MANNING        FAIR      37   5  25 N9        30.43F WCI  31
COLUMBIA       CLOUDY    39   2  21 E8G17     30.41F WCI  33
SUMTER         PTSUNNY   35   4  27 E9        30.42F WCI  28
FLORENCE       PTSUNNY   35   3  26 NE10      30.47F WCI  27
MYRTLE BEACH   SUNNY     36  10  35 SE14      30.49F WCI  27
N MYRTLE BEACH MOSUNNY   34  10  37 E9        30.47F WCI  27

$$

GAZ063-065-086>088-099>101-113>116-118-119-134>141-150-142000-
...SOUTHEAST GEORGIA...

CITY           SKY/WX    TMP DP  RH WIND       PRES   REMARKS
SAVANNAH ARPT  CLOUDY    45  28  51 E9        30.38F
HUNTER AAF     CLOUDY    43  31  61 NE13      30.36F
FORT STEWART   CLOUDY    45  30  56 E7        30.36F
STATESBORO     SUNNY     52  13  21 SE6       30.34F
SYLVANIA       CLEAR     47  26  42 E12       30.36F
CLAXTON        FAIR      50  33  52 E7        30.34F

...CSRA...CENTRAL AND FAR SOUTHEAST GEORGIA...

CITY           SKY/WX    TMP DP  RH WIND       PRES   REMARKS
THOMSON        SUNNY     45  18  34 E7        30.38F
AUGUSTA-BUSH   SUNNY     44  12  27 E10       30.37F
AUGUSTA-DANIEL SUNNY     43   9  24 MISG      30.37F
SWAINSBORO     FAIR      46  23  39 E10       30.34F
VIDALIA        MOSUNNY   50  28  43 SE7       30.33F
EASTMAN        FAIR      51  27  39 E7        30.33F
HAZLEHURST     FAIR      52  32  45 E8        30.30F
ALMA           SUNNY     53  36  52 E9        30.31F
WAYCROSS       MOSUNNY   59  44  56 E12G20    30.29F
JESUP          CLOUDY    50  39  66 E10       30.35F
BAXLEY         FAIR      52  36  54 SE7       30.31F
BRUNSWICK      CLOUDY    46  39  76 NE14      30.35F
SAINT SIMONS   CLOUDY    47  41  80 NE16G28   30.34F

$$

SCZ027-028-034-036>038-045-046-048>050-GAZ119-141-142000-
...LAKE AND SUPPLEMENTAL COASTAL OBSERVATIONS...

STATION/POSITION TIME  TEMP    WIND        PRES    WAVE   SWELL
                       AIR SEA DIR/SP/G            HT/PER HT/PER/DIR
                 (UTC) (F)     (DEG/KT/KT) (MB)    (FT/S) (FT/S/D)
WINYAH BAY       1845   32      60/ 14     1030.0F
LAKE MURRAY      1800   33      80/  7/ 11 1030.5F
ACE BASIN NERRS  1800   42      50/  5     1030.0F
FORT PULASKI     1900   40 50   50/ 19/ 24 1029.4F
SAPELO ISLAND    1900   45      30/ 13     1028.0F

$$

ANZ835-935-AMZ111-154-330-350-352-354-370-450-454-472-142000-
...C-MAN AND BUOY OBSERVATIONS...

STATION/POSITION TIME  TEMP    WIND        PRES    WAVE   SWELL
                       AIR SEA DIR/SP/G            HT/PER HT/PER/DIR
                 (UTC) (F)     (DEG/KT/KT) (MB)    (FT/S) (FT/S/D)
BUOY 41004       1850   45 68   40/ 16/ 19 1029.0F   5/ 7   2/ 9
BUOY 41008       1850   47 53   50/ 21/ 25 1026.7F   7/ 6   2/ 60/12
FOLLY BEACH CMAN 1900   36      40/ 21/ 25 1030.5F
CAPERS NEARSHORE 1808   36      50/ 19/ 25 1030.5F
FRIPP NEARSHORE  1800   40      50/ 25/ 31 1028.5F


STATION/POSITION TIME  TEMP    WIND        PRES    WAVE   SWELL
                       AIR SEA DIR/SP/G            HT/PER HT/PER/DIR
                 (UTC) (F)     (DEG/KT/KT) (MB)    (FT/S) (FT/S/D)
5E ST. MARYS GA  1821      55                N/A     5/ 6
FRYING PAN BUOY  1900   36 61   30/ 16/ 19 1031.5F
BUOY 41025       1850   29 71   10/ 16/ 21 1032.8S   5/10   3/ 80/10
CAPE LOOKOUT NC  1900   27     360/ 13/ 15 1032.6F
BUOY 41002       1850   49 68   40/  6/ 10   N/A     9/10   8/ 20/10
BUOY 41010       1820   63 72              1025.2F
ST AUGUSTINE FL  1900   54 58  360/ 19/ 21 1026.1F


$$



USA.gov is the U.S. government's official web portal to all federal, state and local government web resources and services.